When you browse on this site, cookies collect data to enhance your experience and personalize the content and advertising you see.
Visit our Privacy Policy to learn more. By continuing to use the site, you agree to this use of cookies and data.
  • In Hungary
  • List of Countries
  • For 7 days
  • Water Temperature
  • Weather Map
  • News
  • Weather Widgets
  • user-avatar
    Login

    Hourly Weather Rybitwy

    Today, 16 September, Monday

    Time Temperature Precipitation Wind Pressure Humidity
    00:00 +14°C° 0 mm 4 mps 748 mmHg 70%
    01:00 +14°C° 0 mm 4 mps 748 mmHg 72%
    02:00 +14°C° 0 mm 4 mps 748 mmHg 74%
    03:00 +13°C° 0 mm 4 mps 747 mmHg 77%
    04:00 +13°C° 0 mm 4 mps 747 mmHg 79%
    05:00 +14°C° 0 mm 4 mps 747 mmHg 77%
    06:00 +15°C° 0 mm 4 mps 747 mmHg 75%
    07:00 +15°C° 0 mm 4 mps 748 mmHg 72%
    08:00 +16°C° 0 mm 5 mps 748 mmHg 70%
    09:00 +16°C° 0 mm 5 mps 748 mmHg 68%
    10:00 +17°C° 0 mm 5 mps 748 mmHg 66%
    11:00 +17°C° 0 mm 5 mps 747 mmHg 62%
    12:00 +19°C° 0 mm 5 mps 747 mmHg 58%
    13:00 +19°C° 0 mm 5 mps 747 mmHg 54%
    14:00 +17°C° 0 mm 5 mps 747 mmHg 56%
    15:00 +17°C° 0 mm 4 mps 747 mmHg 58%
    16:00 +16°C° 0 mm 3 mps 747 mmHg 61%
    17:00 +16°C° 0 mm 3 mps 747 mmHg 62%
    18:00 +14°C° 0 mm 3 mps 746 mmHg 64%
    19:00 +13°C° 0 mm 3 mps 746 mmHg 65%
    20:00 +13°C° 0 mm 3 mps 746 mmHg 68%
    21:00 +13°C° 0 mm 3 mps 746 mmHg 71%
    22:00 +12°C° 0 mm 3 mps 746 mmHg 74%
    23:00 +12°C° 0 mm 3 mps 746 mmHg 76%

    Tomorrow, 17 September, Tuesday

    Time Temperature Precipitation Wind Pressure Humidity
    00:00 +11°C° 0 mm 3 mps 746 mmHg 79%
    01:00 +11°C° 0 mm 3 mps 746 mmHg 81%
    02:00 +11°C° 0 mm 3 mps 746 mmHg 83%
    03:00 +10°C° 0 mm 3 mps 745 mmHg 84%
    04:00 +10°C° 0 mm 2 mps 745 mmHg 85%
    05:00 +11°C° 0 mm 3 mps 745 mmHg 82%
    06:00 +11°C° 0 mm 3 mps 745 mmHg 78%
    07:00 +12°C° 0 mm 3 mps 745 mmHg 74%
    08:00 +13°C° 0 mm 4 mps 745 mmHg 67%
    09:00 +14°C° 0 mm 5 mps 745 mmHg 60%
    10:00 +15°C° 0 mm 5 mps 745 mmHg 53%
    11:00 +15°C° 0 mm 6 mps 744 mmHg 54%
    12:00 +15°C° 0 mm 6 mps 744 mmHg 54%
    13:00 +15°C° 0 mm 6 mps 743 mmHg 54%
    14:00 +15°C° 0 mm 6 mps 743 mmHg 56%
    15:00 +15°C° 0 mm 6 mps 742 mmHg 57%
    16:00 +14°C° 0 mm 6 mps 742 mmHg 58%
    17:00 +13°C° 0 mm 6 mps 742 mmHg 61%
    18:00 +12°C° 0 mm 5 mps 742 mmHg 63%
    19:00 +11°C° 0 mm 4 mps 742 mmHg 65%
    20:00 +10°C° 0.2 mm 5 mps 742 mmHg 70%
    21:00 +9°C° 0.2 mm 6 mps 742 mmHg 76%
    22:00 +9°C° 0.2 mm 6 mps 742 mmHg 81%
    23:00 +8°C° 0.2 mm 6 mps 742 mmHg 81%

    Day after tomorrow, 18 September, Wednesday

    Time Temperature Precipitation Wind Pressure Humidity
    00:00 +6°C° 0.2 mm 7 mps 743 mmHg 82%
    01:00 +5°C° 0.2 mm 7 mps 743 mmHg 82%
    02:00 +5°C° 0 mm 7 mps 743 mmHg 82%
    03:00 +5°C° 0 mm 7 mps 744 mmHg 81%
    04:00 +4°C° 0 mm 8 mps 744 mmHg 81%
    05:00 +5°C° 0 mm 8 mps 745 mmHg 78%
    06:00 +6°C° 0 mm 8 mps 746 mmHg 75%
    07:00 +6°C° 0 mm 8 mps 747 mmHg 72%
    08:00 +7°C° 0 mm 8 mps 747 mmHg 70%
    09:00 +7°C° 0 mm 8 mps 748 mmHg 67%
    10:00 +9°C° 0 mm 8 mps 749 mmHg 65%
    11:00 +10°C° 0 mm 8 mps 749 mmHg 63%
    12:00 +10°C° 0 mm 8 mps 749 mmHg 60%
    13:00 +11°C° 0 mm 7 mps 749 mmHg 58%
    14:00 +11°C° 0 mm 7 mps 749 mmHg 56%
    15:00 +11°C° 0 mm 7 mps 749 mmHg 55%
    16:00 +13°C° 0 mm 6 mps 749 mmHg 54%
    17:00 +12°C° 0 mm 5 mps 749 mmHg 58%
    18:00 +9°C° 0 mm 5 mps 749 mmHg 62%
    19:00 +8°C° 0 mm 4 mps 749 mmHg 67%
    20:00 +8°C° 0 mm 4 mps 750 mmHg 70%
    21:00 +7°C° 0 mm 4 mps 750 mmHg 73%
    22:00 +6°C° 0 mm 4 mps 750 mmHg 76%
    23:00 +6°C° 0 mm 4 mps 750 mmHg 75%

    19 September, Thursday

    Time Temperature Precipitation Wind Pressure Humidity
    00:00 +6°C° 0 mm 4 mps 750 mmHg 73%
    01:00 +7°C° 0 mm 4 mps 751 mmHg 71%
    02:00 +6°C° 0 mm 4 mps 751 mmHg 71%
    03:00 +6°C° 0 mm 4 mps 750 mmHg 72%
    04:00 +6°C° 0 mm 4 mps 750 mmHg 72%
    05:00 +6°C° 0 mm 4 mps 751 mmHg 71%
    06:00 +7°C° 0 mm 5 mps 751 mmHg 71%
    07:00 +7°C° 0 mm 5 mps 751 mmHg 71%
    08:00 +8°C° 0 mm 6 mps 751 mmHg 67%
    09:00 +10°C° 0 mm 6 mps 752 mmHg 64%
    10:00 +11°C° 0 mm 6 mps 752 mmHg 61%
    11:00 +13°C° 0.3 mm 6 mps 752 mmHg 58%
    12:00 +13°C° 0.3 mm 6 mps 752 mmHg 55%
    13:00 +14°C° 0.3 mm 7 mps 751 mmHg 53%
    14:00 +14°C° 0.1 mm 6 mps 751 mmHg 51%
    15:00 +14°C° 0.1 mm 6 mps 751 mmHg 49%
    16:00 +14°C° 0.1 mm 6 mps 751 mmHg 48%
    17:00 +12°C° 0 mm 5 mps 752 mmHg 54%
    18:00 +10°C° 0 mm 4 mps 752 mmHg 60%
    19:00 +9°C° 0 mm 3 mps 753 mmHg 66%
    20:00 +8°C° 0 mm 3 mps 753 mmHg 70%
    21:00 +8°C° 0 mm 3 mps 753 mmHg 74%
    22:00 +7°C° 0 mm 3 mps 754 mmHg 78%
    23:00 +7°C° 0 mm 3 mps 754 mmHg 82%

    20 September, Friday

    Time Temperature Precipitation Wind Pressure Humidity
    00:00 +5°C° 0 mm 3 mps 754 mmHg 85%
    01:00 +4°C° 0 mm 3 mps 754 mmHg 88%
    02:00 +4°C° 0 mm 3 mps 754 mmHg 89%
    03:00 +4°C° 0 mm 3 mps 755 mmHg 90%
    04:00 +3°C° 0 mm 3 mps 755 mmHg 91%
    05:00 +4°C° 0 mm 3 mps 755 mmHg 85%
    06:00 +5°C° 0 mm 3 mps 755 mmHg 80%
    07:00 +7°C° 0 mm 3 mps 755 mmHg 74%
    08:00 +8°C° 0 mm 4 mps 755 mmHg 66%
    09:00 +11°C° 0 mm 4 mps 756 mmHg 57%
    10:00 +12°C° 0 mm 4 mps 756 mmHg 49%
    11:00 +13°C° 0.1 mm 4 mps 756 mmHg 48%
    12:00 +13°C° 0.1 mm 4 mps 755 mmHg 46%
    13:00 +13°C° 0.1 mm 4 mps 755 mmHg 45%
    14:00 +13°C° 0 mm 4 mps 755 mmHg 46%
    15:00 +13°C° 0 mm 4 mps 755 mmHg 47%
    16:00 +13°C° 0 mm 3 mps 754 mmHg 48%
    17:00 +12°C° 0 mm 3 mps 755 mmHg 52%
    18:00 +10°C° 0 mm 3 mps 755 mmHg 57%
    19:00 +9°C° 0 mm 2 mps 755 mmHg 61%
    20:00 +8°C° 0 mm 2 mps 755 mmHg 63%
    21:00 +8°C° 0 mm 2 mps 755 mmHg 66%
    22:00 +7°C° 0 mm 2 mps 755 mmHg 69%
    23:00 +7°C° 0 mm 2 mps 755 mmHg 70%

    21 September, Saturday

    Time Temperature Precipitation Wind Pressure Humidity
    00:00 +7°C° 0 mm 3 mps 755 mmHg 71%
    01:00 +7°C° 0 mm 3 mps 755 mmHg 72%
    02:00 +7°C° 0 mm 3 mps 754 mmHg 70%
    03:00 +7°C° 0 mm 3 mps 754 mmHg 68%
    04:00 +6°C° 0 mm 4 mps 754 mmHg 66%
    05:00 +7°C° 0 mm 4 mps 754 mmHg 63%
    06:00 +8°C° 0 mm 4 mps 754 mmHg 61%
    07:00 +8°C° 0 mm 5 mps 754 mmHg 59%
    08:00 +9°C° 0 mm 5 mps 754 mmHg 59%
    09:00 +10°C° 0 mm 5 mps 754 mmHg 60%
    10:00 +12°C° 0 mm 5 mps 754 mmHg 60%
    11:00 +13°C° 0 mm 5 mps 754 mmHg 61%
    12:00 +14°C° 0 mm 4 mps 754 mmHg 62%
    13:00 +16°C° 0 mm 3 mps 753 mmHg 63%
    14:00 +17°C° 0.1 mm 3 mps 753 mmHg 64%
    15:00 +17°C° 0.1 mm 3 mps 753 mmHg 65%
    16:00 +17°C° 0.1 mm 3 mps 753 mmHg 65%
    17:00 +16°C° 0 mm 3 mps 753 mmHg 71%
    18:00 +14°C° 0 mm 2 mps 753 mmHg 76%
    19:00 +13°C° 0 mm 2 mps 754 mmHg 82%
    20:00 +13°C° 0 mm 2 mps 754 mmHg 84%
    21:00 +12°C° 0 mm 2 mps 754 mmHg 85%
    22:00 +12°C° 0 mm 2 mps 754 mmHg 87%
    23:00 +12°C° 0 mm 2 mps 754 mmHg 88%
    Show more